Location: Nairn
(57.5833°N, 3.8667°W)
Time: 04:19:50
(UTC+00:00)

Altair - Pass Details

Date: 26 November 2020
Orbit: 1501 x 1682 km, 47.2° (Epoch: 17 January)

Event Time Altitude Azimuth Distance (km) Brightness Sun altitude
Exits shadow 04:17:50 14° 188° (S) 3,367 9.1 -31.6°
Drops below altitude 10° 04:19:31 10° 179° (S) 3,698 9.4 -31.4°
Sets 04:23:36 0° 164° (SSE) 4,704 10.1 -30.8°
